Date,TemperatureHighF,TemperatureAvgF,TemperatureLowF,DewpointHighF,DewpointAvgF,DewpointLowF,HumidityHigh,HumidityAvg,HumidityLow,PressureMaxIn,PressureMinIn,WindSpeedMaxMPH,WindSpeedAvgMPH,GustSpeedMaxMPH,PrecipitationSumIn
2013-1-1,37.2,32.3,17.2,27.3,21.0,7.9,71,63,50,29.94,29.75,13,3,18,0.01
2013-1-2,27.8,20.3,9.0,16.6,11.8,5.7,87,70,53,30.11,29.92,8,2,15,0.00
2013-1-3,26.3,15.7,4.8,15.1,5.3,-3.7,80,64,48,30.15,29.97,12,1,17,0.00
2013-1-4,38.2,31.6,22.4,24.3,20.9,15.1,76,65,53,29.97,29.83,11,3,18,0.01
2013-1-5,41.1,31.0,21.0,25.7,21.6,18.1,92,69,51,30.21,29.88,13,2,18,0.09
2013-1-6,43.5,32.1,23.0,29.4,25.9,20.8,95,79,55,30.16,29.89,6,1,12,0.08
2013-1-7,39.5,32.0,18.9,29.4,24.4,16.9,92,74,53,30.33,29.96,13,2,20,0.01
2013-1-8,48.8,30.1,16.2,29.9,23.5,14.0,95,79,46,30.34,30.25,7,1,12,0.00
2013-1-9,42.2,30.0,18.1,35.7,25.9,16.2,94,85,66,30.34,30.04,8,1,15,0.00
2013-1-10,44.6,38.4,29.3,31.9,24.1,22.0,80,57,43,30.50,30.12,12,3,18,0.00
2013-1-11,36.0,30.8,23.6,36.0,27.9,21.6,100,89,68,30.48,30.07,5,0,9,0.21
2013-1-12,44.6,39.4,35.6,44.6,39.4,35.6,100,100,100,30.12,30.04,3,0,4,0.02
2013-1-13,45.1,41.0,37.0,45.1,41.0,37.0,100,100,100,30.09,29.93,3,0,5,0.10
2013-1-14,50.1,43.5,34.9,49.4,39.3,24.8,100,86,66,30.26,29.83,12,3,18,0.03
2013-1-15,36.3,33.4,30.0,28.0,24.9,22.8,82,71,61,30.30,30.16,10,2,14,0.00
2013-1-16,33.1,31.1,28.7,32.1,29.9,23.5,99,95,70,30.17,29.77,5,0,7,0.01
2013-1-17,39.6,33.3,25.3,32.1,26.9,10.6,95,78,53,30.06,29.82,9,2,14,0.20
2013-1-18,28.7,21.6,15.6,12.6,6.9,-1.3,73,54,35,30.40,29.99,15,3,22,0.01
2013-1-19,46.0,34.1,21.9,29.3,22.3,10.0,76,62,46,30.31,29.81,9,2,16,0.10
2013-1-20,50.8,38.5,26.0,30.2,22.9,6.6,78,55,28,29.95,29.56,16,5,26,0.00
2013-1-21,27.9,23.8,17.8,21.5,12.9,5.9,93,64,43,30.03,29.73,10,1,16,0.00
2013-1-22,21.1,17.5,10.7,18.3,1.0,-8.5,94,50,29,30.10,29.73,14,4,22,0.00
2013-1-23,17.7,11.2,6.1,-2.3,-5.7,-10.1,63,47,29,30.15,30.07,13,3,20,0.00
2013-1-24,20.0,9.4,0.7,0.0,-3.4,-7.1,81,58,35,30.28,30.09,15,3,23,0.00
2013-1-25,21.4,14.4,7.0,13.5,2.3,-2.5,89,60,36,30.34,30.00,9,1,12,0.00
2013-1-26,24.7,16.1,9.0,12.2,5.8,0.9,90,66,42,30.29,29.98,12,3,20,0.00
2013-1-27,32.1,18.3,6.1,10.9,5.5,0.9,86,61,27,30.44,30.28,10,1,16,0.01
2013-1-28,32.2,24.2,14.4,31.7,20.7,9.2,98,87,61,30.43,29.92,4,0,6,0.00
2013-1-29,41.9,35.3,32.2,38.6,34.4,31.7,100,97,86,30.10,29.91,8,1,12,0.24
2013-1-30,54.4,44.1,34.7,54.2,44.1,34.7,100,100,100,30.04,29.29,8,1,17,0.15
2013-1-31,59.0,44.3,27.6,57.9,34.2,10.9,100,70,36,29.64,28.93,20,7,33,0.69
2013-2-1,30.7,25.7,20.8,13.9,8.5,1.1,63,48,30,30.11,29.64,17,5,25,0.00
2013-2-2,29.0,22.0,16.9,18.1,9.8,3.6,88,61,34,30.20,30.00,11,2,16,0.00
2013-2-3,30.4,21.8,12.4,17.6,15.1,9.8,92,76,53,30.00,29.72,6,0,9,0.02
2013-2-4,29.3,23.8,18.6,20.2,10.5,3.2,90,58,35,29.90,29.71,14,3,24,0.00
2013-2-5,29.3,24.6,21.1,24.0,19.3,11.1,92,80,64,29.94,29.85,4,0,6,0.01
2013-2-6,38.2,29.0,22.7,26.5,18.9,-0.9,94,69,32,30.29,29.85,10,1,20,0.01
2013-2-7,34.4,24.1,14.3,14.6,6.3,-0.8,75,48,28,30.46,30.28,6,1,10,0.00
2013-2-8,30.6,27.8,23.0,28.8,23.1,14.1,96,83,58,30.31,29.63,17,4,24,0.00
2013-2-9,26.4,21.8,14.0,23.7,17.2,6.3,96,84,44,30.27,29.70,21,7,34,0.07
2013-2-10,33.5,21.9,8.4,32.2,19.8,5.3,98,92,86,30.42,30.27,10,2,13,0.14
2013-2-11,39.8,31.2,17.2,39.8,30.8,15.0,100,98,91,30.23,29.60,7,0,12,0.32
2013-2-12,43.2,37.0,33.5,37.5,29.6,24.0,100,76,56,29.88,29.62,14,3,20,0.08
2013-2-13,45.2,34.6,22.5,31.4,23.8,19.4,96,66,41,29.86,29.64,6,0,10,0.01
2013-2-14,44.6,32.5,21.3,31.1,25.6,20.1,98,78,43,29.93,29.65,10,1,15,0.05
2013-2-15,52.5,38.8,25.6,33.0,28.2,22.9,93,68,42,29.93,29.83,11,1,18,0.00
2013-2-16,35.6,30.5,26.4,32.9,22.0,12.8,97,72,53,29.91,29.68,12,4,17,0.04
2013-2-17,29.1,21.9,15.1,12.8,2.9,-2.7,57,44,27,29.85,29.57,19,9,34,0.00
2013-2-18,34.7,23.0,12.3,10.4,4.2,0.6,60,45,27,30.13,29.85,13,3,20,0.00
2013-2-19,43.3,32.5,19.1,38.9,25.8,9.6,100,78,52,30.13,29.57,13,1,23,0.22
2013-2-20,35.9,28.5,22.5,33.0,15.0,7.5,89,57,43,29.87,29.57,15,6,24,0.00
2013-2-21,31.6,24.5,20.3,14.1,12.2,10.2,72,60,46,30.26,29.84,17,5,26,0.00
2013-2-22,37.9,29.0,20.0,27.0,19.8,13.5,82,69,50,30.37,30.22,10,2,16,0.00
2013-2-23,37.5,34.3,32.5,37.0,32.3,26.9,100,92,79,30.22,29.77,8,1,13,0.07
2013-2-24,39.5,35.4,31.3,36.8,31.8,23.1,100,88,68,29.90,29.68,14,2,22,0.02
2013-2-25,44.8,35.0,27.8,28.7,25.9,22.9,89,70,49,30.18,29.89,10,2,18,0.00
2013-2-26,43.3,33.4,22.2,30.6,25.8,20.7,96,75,50,30.25,29.92,11,2,23,0.05
2013-2-27,43.2,39.0,32.9,41.8,37.8,30.6,100,96,91,29.91,29.46,14,3,26,0.85
2013-2-28,46.8,39.1,33.7,41.0,36.2,33.5,100,90,66,29.55,29.47,5,0,9,0.06
2013-3-1,43.9,37.2,32.7,34.3,30.2,25.9,97,76,56,29.70,29.53,14,3,20,0.07
2013-3-2,37.2,33.0,27.6,26.1,24.4,22.2,82,71,61,29.70,29.62,12,3,16,0.00
2013-3-3,32.7,28.8,26.0,26.1,20.4,15.7,82,71,56,29.68,29.61,12,4,20,0.00
2013-3-4,39.8,31.2,25.7,22.8,20.2,17.8,76,64,49,29.82,29.66,12,4,24,0.00
2013-3-5,45.1,35.6,27.2,27.8,24.7,21.2,79,65,48,29.98,29.82,14,3,20,0.00
2013-3-6,41.6,37.1,33.2,36.0,30.0,26.6,88,76,63,29.96,29.87,18,6,26,0.01
2013-3-7,35.9,33.4,30.4,31.1,28.6,25.0,97,83,68,30.03,29.92,17,7,26,0.02
2013-3-8,37.8,32.3,28.7,29.8,27.9,24.3,98,85,66,30.16,29.94,16,5,29,0.11
2013-3-9,49.2,35.8,27.6,27.4,24.3,22.0,88,65,39,30.26,30.15,12,4,17,0.12
2013-3-10,53.6,36.8,20.3,34.1,27.6,18.8,95,73,39,30.33,30.21,157,1,12,0.00
2013-3-11,53.6,43.4,35.0,45.4,38.0,32.1,96,82,57,30.25,30.01,9,2,17,0.00
2013-3-12,53.9,50.2,39.8,53.9,48.6,36.8,100,94,85,30.02,29.60,11,4,18,0.83
2013-3-13,51.4,40.1,31.9,36.8,28.7,20.7,89,66,34,29.80,29.71,184,2,17,0.00
2013-3-14,34.9,30.5,25.6,29.2,15.0,7.5,86,53,38,29.84,29.76,154,3,255,0.00
2013-3-15,40.5,32.6,21.9,31.0,18.5,8.6,78,57,39,29.88,29.64,158,1,255,0.00
2013-3-16,37.9,32.6,27.0,27.8,20.3,13.9,85,61,39,29.81,29.68,170,0,255,0.00
2013-3-17,36.8,31.7,26.1,10.5,7.7,5.2,50,37,27,30.26,30.05,110,2,255,0.00
2013-3-18,35.0,27.3,17.5,27.3,11.9,3.0,95,56,28,30.37,30.01,11,2,17,0.00
2013-3-19,36.9,32.7,28.5,35.1,30.9,27.2,99,93,89,30.01,29.62,11,2,21,0.33
2013-3-20,40.5,32.2,26.6,29.8,20.3,15.2,92,63,36,29.77,29.71,15,3,25,0.11
2013-3-21,36.9,30.3,25.0,23.3,16.5,8.5,90,60,33,29.76,29.56,11,2,15,0.01
2013-3-22,37.9,30.6,19.9,23.7,18.8,13.2,81,62,46,29.77,29.63,14,3,22,0.00
2013-3-23,44.8,36.5,30.7,24.1,20.1,14.2,69,53,31,29.84,29.71,17,5,30,0.00
2013-3-24,43.8,35.2,26.6,27.5,21.9,17.4,77,59,44,29.86,29.67,13,2,18,0.00
2013-3-25,45.5,37.9,30.9,27.5,25.1,22.6,83,61,42,29.68,29.40,15,3,21,0.00
2013-3-26,48.6,39.1,29.0,31.8,27.4,22.7,86,64,41,29.78,29.52,13,2,20,0.00
2013-3-27,52.9,38.5,23.3,29.0,24.3,20.1,95,62,30,29.88,29.77,13,2,23,0.00
2013-3-28,46.4,39.7,31.6,35.0,30.9,24.8,84,71,57,30.03,29.87,12,2,17,0.00
2013-3-29,54.4,42.7,30.0,33.6,29.3,26.8,90,61,35,30.06,29.97,12,2,19,0.00
2013-3-30,56.3,43.0,29.7,32.8,26.2,17.8,95,58,25,30.09,29.98,12,1,21,0.00
2013-3-31,55.9,41.1,25.6,42.1,29.7,22.8,97,68,31,30.07,29.61,13,2,18,0.10
2013-4-1,58.9,44.7,33.2,45.7,35.6,10.6,100,74,33,29.81,29.53,15,3,26,0.08
2013-4-2,42.1,34.1,28.2,19.2,12.6,6.3,63,42,26,29.97,29.81,16,5,26,0.00
2013-4-3,46.0,35.5,29.0,16.8,13.1,9.4,56,40,26,30.22,29.96,16,5,24,0.00
2013-4-4,55.9,39.8,24.5,30.3,19.3,12.3,81,47,22,30.30,29.99,9,2,18,0.00
2013-4-5,61.0,46.0,36.2,30.7,24.2,16.3,78,46,21,29.99,29.64,15,3,24,0.00
2013-4-6,48.9,38.3,30.3,24.2,13.3,3.4,68,39,17,30.24,29.91,16,4,31,0.00
2013-4-7,57.0,43.6,29.4,41.9,30.5,16.7,91,62,32,30.23,29.92,14,3,21,0.00
2013-4-8,68.6,53.3,37.3,43.8,39.3,35.7,99,65,31,30.02,29.90,8,1,12,0.00
2013-4-9,74.9,61.9,47.7,52.3,45.5,39.5,95,59,30,29.92,29.81,17,3,26,0.01
2013-4-10,65.0,56.1,47.9,56.9,51.0,44.1,100,84,63,29.90,29.74,13,1,18,0.29
2013-4-11,55.9,48.8,40.9,55.1,41.9,30.9,100,78,58,30.01,29.74,12,3,16,0.00
2013-4-12,43.1,40.0,37.9,38.5,36.0,32.6,95,86,67,30.01,29.69,11,3,20,0.31
2013-4-13,54.1,45.1,36.5,40.2,36.2,33.3,99,74,47,29.88,29.71,8,1,14,0.04
2013-4-14,51.9,44.4,34.4,36.8,30.7,25.2,86,61,38,30.17,29.87,13,2,20,0.00
2013-4-15,61.2,45.4,31.6,35.0,31.1,28.0,91,61,33,30.32,30.16,8,2,13,0.00
2013-4-16,66.3,52.1,38.6,53.0,44.7,31.7,94,76,56,30.31,30.03,12,2,20,0.00
2013-4-17,64.8,54.6,43.3,53.8,39.4,30.4,98,61,29,30.25,30.03,13,3,24,0.02
2013-4-18,60.7,50.2,38.3,47.6,38.6,31.8,90,67,37,30.29,30.05,13,3,20,0.00
2013-4-19,74.4,62.6,51.7,63.0,58.5,47.6,100,87,66,30.04,29.56,14,3,24,0.38
2013-4-20,61.0,49.1,39.3,61.0,36.1,23.7,100,66,30,30.24,29.58,16,4,23,0.32
2013-4-21,51.4,41.0,30.7,31.0,22.8,17.6,77,51,30,30.57,30.24,16,3,25,0.00
2013-4-22,58.7,44.3,31.3,36.1,29.4,20.3,89,60,27,30.62,30.45,9,2,17,0.00
2013-4-23,49.9,42.2,33.7,40.8,35.6,29.1,92,78,69,30.46,30.07,9,2,14,0.00
2013-4-24,73.0,54.7,37.5,50.1,44.3,36.2,98,72,40,30.07,29.73,9,2,16,0.00
2013-4-25,61.8,53.6,40.2,51.8,34.2,23.1,95,52,24,30.20,29.76,13,3,21,0.00
2013-4-26,63.4,48.9,32.5,37.9,32.3,28.3,93,57,27,30.36,30.20,12,2,16,0.00
2013-4-27,68.3,52.7,32.8,37.4,30.6,20.9,96,49,18,30.37,30.21,10,1,15,0.00
2013-4-28,73.2,55.3,37.0,44.5,37.0,27.2,95,55,27,30.25,30.12,9,1,15,0.00
2013-4-29,58.0,53.8,49.1,47.5,41.9,31.3,81,64,46,30.18,30.13,9,1,14,0.00
2013-4-30,69.1,57.9,46.4,44.1,34.7,21.9,82,47,19,30.27,30.15,7,1,12,0.00
2013-5-1,73.3,56.1,35.8,42.7,36.2,26.4,91,54,21,30.41,30.27,8,1,12,0.00
2013-5-2,80.5,60.5,39.6,46.7,41.5,37.5,97,57,25,30.40,30.21,8,1,15,0.00
2013-5-3,69.9,59.0,47.0,44.8,37.1,31.8,81,46,26,30.40,30.25,9,1,13,0.00
2013-5-4,75.1,56.8,40.3,46.9,42.6,36.8,98,65,27,30.30,30.13,8,1,13,0.00
2013-5-5,71.8,53.1,37.3,44.5,39.2,31.1,99,66,24,30.25,30.11,6,1,12,0.00
2013-5-6,74.0,55.5,38.2,52.2,45.8,37.2,99,74,39,30.22,30.05,6,1,12,0.00
2013-5-7,78.5,61.4,43.9,57.3,50.9,43.4,100,73,34,30.11,30.01,7,1,12,0.00
2013-5-8,66.4,60.9,56.2,64.0,59.2,55.3,99,94,86,30.06,29.93,6,1,13,0.50
2013-5-9,63.1,57.2,51.6,60.9,56.2,51.6,100,96,84,29.96,29.82,5,0,10,0.24
2013-5-10,79.4,63.5,48.5,61.0,54.1,48.5,100,76,36,29.93,29.83,5,0,12,0.01
2013-5-11,67.3,62.9,58.4,65.2,62.0,56.7,100,97,85,29.80,29.62,8,0,15,0.68
2013-5-12,66.4,58.1,47.9,60.7,45.2,23.1,100,68,26,29.82,29.58,12,2,21,0.02
2013-5-13,54.2,46.5,38.2,38.8,31.9,26.9,89,58,38,30.03,29.82,12,2,17,0.00
2013-5-14,59.0,46.3,32.4,37.8,31.1,23.7,98,62,27,30.05,29.94,8,1,16,0.00
2013-5-15,66.0,49.8,32.4,54.7,44.1,31.1,97,82,50,30.01,29.61,8,1,18,0.05
2013-5-16,82.4,61.5,44.1,55.3,46.2,37.5,100,67,23,29.77,29.63,11,1,23,0.00
2013-5-17,68.8,57.5,48.2,49.8,43.5,38.9,93,63,36,30.15,29.77,12,2,20,0.00
2013-5-18,70.6,55.6,41.2,50.9,46.5,40.1,98,75,42,30.24,30.15,9,1,17,0.00
2013-5-19,57.2,54.9,51.4,57.0,54.3,49.5,100,98,91,30.27,30.11,5,0,9,0.15
2013-5-20,81.1,66.8,55.6,68.1,61.8,55.6,100,86,56,30.11,29.88,5,0,12,0.00
2013-5-21,89.7,74.2,60.5,71.5,66.6,60.5,100,80,49,29.91,29.74,8,1,14,0.00
2013-5-22,79.8,69.1,59.0,71.7,65.7,57.4,100,90,73,29.86,29.75,7,1,14,0.67
2013-5-23,72.8,67.5,64.3,71.5,67.1,64.3,100,99,92,29.82,29.68,5,0,10,1.28
2013-5-24,65.2,54.5,43.5,65.2,53.6,42.3,100,97,84,29.89,29.59,13,2,20,0.37
2013-5-25,47.4,44.7,42.3,45.1,42.1,38.4,98,91,74,29.88,29.81,14,4,29,0.72
2013-5-26,61.0,51.4,41.6,44.2,40.6,37.9,96,68,47,30.11,29.82,14,3,22,0.00
2013-5-27,74.6,58.1,40.1,49.7,41.1,36.1,98,59,26,30.16,30.03,7,1,13,0.00
2013-5-28,70.4,55.1,42.8,58.1,50.0,41.3,100,86,40,30.16,30.07,4,0,10,0.09
2013-5-29,81.2,67.1,56.7,71.5,63.5,56.7,100,89,69,30.08,29.91,13,1,18,0.03
2013-5-30,90.3,75.3,60.2,73.2,66.6,60.2,100,78,47,30.05,29.97,6,0,13,0.01
2013-5-31,93.8,77.0,62.3,73.0,66.4,58.5,100,74,32,30.06,29.91,6,1,15,0.00
2013-6-1,90.7,76.2,62.0,76.9,68.3,61.7,100,79,49,29.94,29.82,7,1,116,0.03
2013-6-2,87.6,76.4,67.8,73.4,69.9,67.2,99,82,58,29.83,29.67,7,1,18,0.00
2013-6-3,77.0,69.6,57.8,69.1,64.0,48.5,100,83,65,29.84,29.72,6,0,13,0.77
2013-6-4,74.0,61.0,47.7,51.2,46.0,42.0,95,61,34,30.06,29.84,9,1,15,0.00
2013-6-5,75.3,61.2,47.0,53.5,48.6,43.8,97,67,33,30.15,30.04,7,0,10,0.00
2013-6-6,70.3,58.9,47.9,58.9,53.7,47.1,100,84,60,30.10,29.97,7,1,15,0.20
2013-6-7,60.2,57.8,55.3,59.9,57.5,54.7,100,99,97,29.98,29.64,10,2,16,1.50
2013-6-8,75.3,63.6,53.6,65.6,59.2,53.6,100,87,67,30.00,29.58,8,1,12,0.70
2013-6-9,79.6,66.6,53.6,63.7,58.2,53.6,100,78,45,30.12,30.00,6,0,10,0.00
2013-6-10,70.8,61.5,56.6,66.2,60.4,56.6,100,97,82,30.12,29.82,9,1,16,0.86
2013-6-11,76.7,65.8,59.5,71.8,63.0,56.7,100,91,74,29.82,29.51,12,1,20,0.37
2013-6-12,72.7,64.9,54.8,57.0,54.5,51.6,98,70,52,29.79,29.59,10,2,21,0.00
2013-6-13,57.8,54.8,50.4,57.0,54.6,50.4,100,99,95,29.78,29.52,10,2,17,1.27
2013-6-14,74.6,59.5,50.7,62.6,55.1,50.7,100,87,52,29.81,29.54,8,1,13,0.47
2013-6-15,79.6,64.8,50.1,60.1,53.4,47.0,100,73,33,29.93,29.81,8,1,15,0.00
2013-6-16,77.2,64.5,50.1,64.3,57.8,50.1,100,81,50,29.92,29.67,9,1,17,0.00
2013-6-17,85.9,70.5,58.7,67.0,62.5,55.5,100,80,36,29.86,29.74,12,1,20,0.03
2013-6-18,81.8,66.1,57.3,69.8,62.8,57.3,100,91,61,29.86,29.76,8,1,15,0.80
2013-6-19,74.2,63.5,53.1,60.3,52.9,42.8,100,73,36,30.12,29.84,9,1,16,0.00
2013-6-20,80.1,64.5,47.0,59.7,53.4,46.7,100,72,36,30.21,30.11,7,1,14,0.00
2013-6-21,83.8,69.6,54.7,67.0,60.4,54.2,100,75,50,30.21,30.15,6,1,13,0.00
2013-6-22,84.3,71.1,56.7,67.1,61.0,56.1,98,73,47,30.18,30.04,7,1,14,0.00
2013-6-23,89.9,75.5,61.2,73.0,66.3,58.3,93,75,49,30.11,29.97,7,1,14,0.00
2013-6-24,91.6,76.6,67.3,75.2,70.3,65.0,100,84,53,29.99,29.86,14,1,25,0.68
2013-6-25,89.7,74.6,64.7,75.6,70.3,64.7,100,89,52,29.93,29.71,11,0,21,0.36
2013-6-26,81.1,74.0,68.6,73.1,70.8,68.4,100,90,73,29.77,29.69,5,0,10,0.00
2013-6-27,84.5,73.5,66.8,74.4,70.0,66.8,100,90,63,29.77,29.51,8,1,16,0.55
2013-6-28,84.7,75.7,69.4,72.6,70.6,67.7,100,86,62,29.50,29.39,8,1,13,0.27
2013-6-29,83.2,74.4,65.6,71.3,68.4,65.6,100,83,60,29.64,29.42,6,1,13,0.00
2013-6-30,84.9,73.0,67.8,75.7,70.7,67.2,100,93,72,29.85,29.64,6,0,13,0.05
2013-7-1,74.7,72.4,69.6,74.7,72.3,69.6,100,100,98,29.99,29.84,4,0,9,0.80
2013-7-2,83.4,76.0,71.8,76.5,73.7,71.8,100,93,76,30.11,29.99,5,0,13,0.03
2013-7-3,84.1,76.6,71.1,78.5,73.5,70.8,100,91,71,30.17,30.08,9,0,13,0.18
2013-7-4,89.5,80.4,72.7,76.9,74.2,72.5,100,83,59,30.17,30.07,7,1,14,0.00
2013-7-5,92.3,81.9,72.5,77.3,73.6,71.0,98,78,54,30.13,30.01,6,1,15,0.00
2013-7-6,91.4,81.9,74.9,76.4,73.8,71.4,97,78,55,30.06,29.95,7,1,17,0.00
2013-7-7,92.5,80.4,71.1,78.9,74.2,67.5,100,83,58,29.98,29.85,6,0,12,0.00
2013-7-8,88.4,78.4,69.3,73.8,69.7,66.1,94,76,57,29.97,29.87,7,1,15,0.00
2013-7-9,87.2,73.5,66.9,75.2,70.8,66.4,100,92,68,29.97,29.94,6,0,14,0.02
2013-7-10,83.6,76.2,71.1,78.7,74.0,71.1,100,93,77,29.95,29.72,6,0,12,0.03
2013-7-11,83.2,74.7,66.3,72.7,70.2,65.4,100,87,64,29.88,29.72,6,0,10,0.01
2013-7-12,82.8,72.5,63.7,69.5,64.9,59.6,100,78,58,30.09,29.88,7,1,15,0.01
2013-7-13,79.4,71.3,65.0,73.6,68.7,62.3,99,92,77,30.24,30.09,5,0,12,0.05
2013-7-14,89.5,79.4,72.3,77.1,74.2,72.3,100,86,61,30.27,30.16,5,0,9,0.05
2013-7-15,90.5,80.7,71.1,76.0,73.0,68.5,100,80,51,30.18,30.08,9,1,15,0.00
2013-7-16,91.4,79.5,67.1,74.4,70.0,64.3,100,76,43,30.16,30.08,10,1,17,0.00
2013-7-17,94.5,81.2,68.8,77.1,72.2,67.4,100,77,43,30.15,29.98,6,0,8,0.00
2013-7-18,95.9,83.0,72.1,79.0,74.6,71.4,99,78,48,29.99,29.88,5,0,13,0.00
2013-7-19,95.9,83.9,71.8,79.8,75.4,71.6,100,78,53,29.90,29.70,8,1,17,0.00
2013-7-20,90.7,81.5,70.6,76.8,73.2,68.8,95,77,56,29.79,29.64,8,1,14,0.00
2013-7-21,87.6,76.2,67.3,70.8,66.1,59.5,97,74,41,29.91,29.78,5,0,7,0.00
2013-7-22,84.0,74.0,64.0,74.4,69.9,63.7,100,88,68,29.92,29.75,6,0,12,0.06
2013-7-23,88.2,75.8,72.0,76.5,73.3,71.2,100,93,60,29.75,29.49,6,0,12,0.62
2013-7-24,78.6,71.6,60.5,72.1,65.6,52.5,100,83,62,29.92,29.55,11,1,16,0.00
2013-7-25,68.3,62.9,56.7,62.9,55.9,49.6,91,78,67,30.03,29.91,7,1,13,0.00
2013-7-26,80.5,68.6,62.6,67.6,62.4,59.1,99,82,56,30.00,29.93,8,1,12,0.02
2013-7-27,83.4,70.1,59.2,67.4,63.0,59.2,100,81,50,30.00,29.90,6,0,12,0.00
2013-7-28,79.6,69.4,62.4,70.3,66.5,61.8,100,91,71,29.95,29.86,6,0,15,0.04
2013-7-29,84.5,72.8,61.8,70.6,65.0,56.0,100,80,44,30.04,29.90,9,1,20,0.00
2013-7-30,79.0,67.2,55.3,62.7,59.3,55.3,100,79,49,30.10,30.03,7,1,12,0.00
2013-7-31,82.2,68.5,55.4,65.4,59.9,55.4,100,78,42,30.11,29.98,6,0,9,0.00
2013-8-1,74.9,65.1,59.3,68.5,64.2,59.3,100,97,75,29.99,29.79,4,0,15,0.31
2013-8-2,82.6,71.3,62.7,67.7,64.7,60.7,100,82,50,29.83,29.73,7,1,14,0.20
2013-8-3,79.6,68.7,63.2,67.6,63.6,59.6,99,84,60,29.83,29.75,8,1,16,0.00
2013-8-4,79.6,65.4,55.7,63.1,59.0,54.5,100,82,42,29.91,29.77,10,1,18,0.03
2013-8-5,77.2,63.3,50.7,57.8,51.8,45.8,100,72,36,30.00,29.90,9,1,20,0.00
2013-8-6,80.3,64.0,48.8,62.4,56.1,48.3,100,79,41,30.07,30.00,5,0,10,0.00
2013-8-7,73.3,66.0,55.1,66.9,61.7,55.1,100,87,71,30.11,30.00,7,0,13,0.00
2013-8-8,82.8,73.5,68.4,74.8,70.8,67.0,100,92,68,30.00,29.94,5,0,12,0.04
2013-8-9,80.1,73.2,71.5,76.6,72.9,71.2,100,99,87,29.95,29.73,7,0,12,3.00
2013-8-10,82.8,72.1,59.9,71.8,64.7,58.8,100,80,45,30.00,29.79,10,1,16,0.00
2013-8-11,79.4,66.0,51.9,64.9,58.1,51.9,100,79,45,30.08,29.96,6,0,12,0.00
2013-8-12,83.4,69.3,58.7,67.3,61.8,56.6,100,81,43,29.99,29.86,6,0,117,0.00
2013-8-13,74.7,67.8,62.9,70.9,66.6,62.8,100,96,81,29.88,29.62,5,0,12,0.35
2013-8-14,73.9,63.9,54.7,64.0,55.6,51.1,100,77,49,29.97,29.70,11,2,20,0.00
2013-8-15,77.0,61.7,48.6,59.3,54.0,48.6,100,79,46,30.09,29.97,7,0,13,0.00
2013-8-16,80.7,64.0,50.5,62.7,55.6,50.3,100,79,36,30.15,30.08,5,0,7,0.00
2013-8-17,81.1,65.8,53.6,67.0,58.8,53.6,100,82,43,30.23,30.15,4,0,5,0.00
2013-8-18,76.8,65.4,57.2,68.6,62.1,57.2,100,90,63,30.22,30.07,3,0,4,0.00
2013-8-19,78.1,65.4,57.3,66.5,61.4,57.3,100,89,60,30.07,29.98,4,0,7,0.00
2013-8-20,85.9,71.8,57.5,71.0,63.5,57.5,100,79,45,30.08,29.99,6,0,12,0.00
2013-8-21,87.8,71.3,59.3,71.0,64.0,59.3,100,81,45,30.13,29.98,6,0,9,0.00
2013-8-22,82.4,71.1,61.8,73.0,68.0,61.8,100,91,69,30.00,29.80,5,0,10,0.00
2013-8-23,79.4,69.7,56.7,69.3,61.0,53.1,100,77,44,30.08,29.81,12,1,16,0.00
2013-8-24,80.1,64.0,50.8,62.1,55.0,50.0,100,77,41,30.30,30.08,6,0,12,0.00
2013-8-25,82.6,64.6,49.5,62.4,55.7,49.2,100,78,39,30.35,30.14,6,0,13,0.00
2013-8-26,76.0,68.4,62.0,70.7,65.1,58.4,100,89,74,30.16,29.85,4,0,9,0.25
2013-8-27,83.8,72.5,66.4,71.3,69.0,66.4,100,90,60,29.86,29.75,8,1,16,0.47
2013-8-28,87.8,72.0,64.0,73.7,68.1,64.0,100,89,54,29.86,29.78,8,0,17,0.00
2013-8-29,79.8,70.8,66.4,68.6,67.1,65.4,100,89,66,29.98,29.84,5,0,9,0.00
2013-8-30,83.6,72.9,66.3,72.3,67.9,64.0,98,86,61,29.97,29.78,5,0,13,0.00
2013-8-31,81.6,75.0,70.4,75.8,72.8,69.9,100,93,80,29.78,29.72,7,0,13,0.12
2013-9-1,81.8,75.5,72.1,76.0,73.7,72.1,100,95,76,29.79,29.74,3,0,7,0.02
2013-9-2,80.7,72.8,66.0,74.6,71.6,66.0,100,96,77,29.76,29.63,4,0,8,0.43
2013-9-3,77.7,67.3,59.6,68.4,64.3,59.0,100,91,64,29.82,29.67,6,0,14,0.02
2013-9-4,81.1,66.8,57.0,63.2,59.7,57.0,100,81,48,29.90,29.81,6,0,12,0.00
2013-9-5,72.8,62.8,49.1,62.3,53.8,42.9,100,76,40,30.11,29.84,10,1,17,0.00
2013-9-6,70.9,55.1,42.9,51.9,45.9,38.2,100,76,34,30.22,30.08,6,0,9,0.00
2013-9-7,78.8,59.6,42.6,61.4,51.4,42.6,100,79,39,30.08,29.82,6,0,9,0.00
2013-9-8,75.8,65.2,50.2,64.7,55.6,46.1,96,73,38,30.05,29.75,9,1,17,0.00
2013-9-9,72.3,56.9,41.9,56.4,49.6,41.9,100,79,47,30.20,30.05,4,0,10,0.00
2013-9-10,78.6,68.6,59.3,74.5,67.1,56.3,100,95,84,30.12,29.98,4,0,10,0.02
2013-9-11,94.9,79.5,68.4,81.0,73.8,67.8,100,85,56,30.04,29.90,10,0,16,0.00
2013-9-12,83.0,72.3,65.6,77.6,70.5,65.6,100,94,78,29.92,29.61,10,0,115,0.23
2013-9-13,73.0,65.5,55.0,68.1,61.5,48.8,100,87,65,29.78,29.57,11,1,18,0.01
2013-9-14,63.7,55.9,47.4,53.5,49.5,46.8,98,80,60,30.06,29.79,10,1,17,0.10
2013-9-15,70.3,54.2,40.6,55.4,48.2,40.6,100,83,44,30.15,30.03,5,0,7,0.00
2013-9-16,66.9,57.6,48.9,56.6,52.8,44.0,100,85,63,30.22,29.98,9,1,13,0.00
2013-9-17,65.2,50.8,37.9,49.4,42.5,37.4,100,77,42,30.39,30.22,8,1,13,0.00
2013-9-18,73.9,53.4,39.2,55.1,46.0,39.2,100,81,35,30.31,30.12,4,0,6,0.00
2013-9-19,79.0,56.7,41.2,58.9,49.2,41.2,100,81,33,30.14,30.00,5,0,7,0.00
2013-9-20,81.4,60.3,46.0,61.1,53.1,46.0,100,82,38,30.05,29.93,4,0,9,0.01
2013-9-21,74.7,62.8,52.8,66.9,60.3,52.5,100,92,74,29.95,29.59,8,1,17,0.02
2013-9-22,66.9,60.3,52.2,66.9,53.4,41.3,100,79,54,29.85,29.57,8,1,16,0.13
2013-9-23,62.3,51.9,42.6,47.1,42.7,37.9,94,73,50,30.00,29.84,12,2,20,0.00
2013-9-24,71.8,53.0,38.2,51.3,44.2,37.9,100,76,40,30.00,29.82,8,1,14,0.00
2013-9-25,71.5,54.6,40.9,57.2,48.2,40.6,100,82,45,29.91,29.82,8,0,12,0.00
2013-9-26,68.6,57.0,48.3,54.3,51.5,47.8,100,84,54,30.07,29.90,8,0,13,0.00
2013-9-27,63.2,54.7,45.1,55.4,51.0,44.8,100,88,69,30.23,30.07,5,0,7,0.00
2013-9-28,73.3,56.8,46.8,58.4,51.7,46.8,100,86,48,30.30,30.19,5,0,10,0.00
2013-9-29,73.5,56.4,47.3,58.1,51.6,47.3,100,86,49,30.20,30.02,3,0,5,0.00
2013-9-30,76.0,57.1,46.5,57.5,51.4,46.2,100,84,46,30.05,29.91,4,0,7,0.00
2013-10-1,79.0,59.5,45.7,62.8,53.9,45.7,100,85,47,29.97,29.84,7,0,12,0.00
2013-10-2,80.5,63.4,48.0,65.9,57.8,48.0,100,84,54,29.95,29.84,7,0,12,0.00
2013-10-3,77.2,60.6,46.1,59.8,53.8,46.1,100,82,39,30.08,29.95,4,0,5,0.00
2013-10-4,80.5,64.3,52.6,68.7,60.1,52.6,100,87,64,30.01,29.92,4,0,7,0.00
2013-10-5,76.3,66.4,61.3,67.1,63.4,60.4,100,91,70,30.05,29.97,4,0,5,0.01
2013-10-6,65.3,61.2,58.3,65.3,61.2,58.1,100,100,100,30.08,30.00,8,1,13,0.32
2013-10-7,75.8,64.9,55.7,71.1,63.8,53.0,100,96,81,30.00,29.67,13,2,22,0.37
2013-10-8,64.7,53.6,44.5,53.6,46.0,40.1,100,79,45,30.31,29.90,12,1,20,0.00
2013-10-9,64.8,51.0,40.2,50.2,44.6,40.2,100,82,42,30.39,30.28,6,0,10,0.00
2013-10-10,58.1,50.6,43.1,51.6,47.1,43.1,100,88,75,30.27,30.08,3,0,5,0.00
2013-10-11,71.5,59.7,51.7,61.6,53.7,47.8,92,81,67,30.08,29.99,5,0,10,0.00
2013-10-12,72.7,57.1,44.5,57.8,51.1,44.0,100,82,54,30.26,30.06,10,1,17,0.00
2013-10-13,67.6,55.0,45.1,52.6,49.2,44.8,100,82,56,30.35,30.25,6,1,12,0.00
2013-10-14,71.1,52.4,40.3,52.8,47.1,40.3,100,85,43,30.33,30.18,4,0,5,0.00
2013-10-15,72.3,56.4,46.0,58.3,51.1,45.6,100,84,60,30.21,30.07,4,0,6,0.00
2013-10-16,62.4,53.9,44.9,56.5,50.7,44.3,99,90,71,30.07,29.85,3,0,5,0.00
2013-10-17,76.8,64.6,57.5,62.1,59.2,54.3,100,85,48,29.85,29.60,6,0,12,0.01
2013-10-18,68.3,59.6,46.4,62.9,48.9,40.7,98,70,41,29.90,29.57,8,2,18,0.00
2013-10-19,66.8,51.6,37.9,53.5,44.2,37.6,100,79,40,29.93,29.67,7,0,13,0.11
2013-10-20,62.4,51.8,40.2,53.3,42.5,35.6,100,74,39,30.00,29.67,10,1,17,0.01
2013-10-21,66.6,49.3,34.6,45.1,39.8,34.3,100,74,38,30.09,29.91,9,1,12,0.00
2013-10-22,60.9,49.0,39.1,52.5,45.0,39.0,100,87,66,29.92,29.68,6,0,14,0.00
2013-10-23,55.3,42.5,31.9,40.6,35.9,30.9,100,80,43,29.76,29.56,7,0,10,0.00
2013-10-24,53.2,43.3,34.3,38.3,32.2,26.6,95,67,37,29.90,29.67,11,2,18,0.00
2013-10-25,51.7,41.4,33.1,34.0,31.6,28.7,93,69,46,30.14,29.90,9,1,16,0.00
2013-10-26,54.8,43.2,30.6,35.1,32.0,27.7,99,68,38,30.13,29.81,10,1,20,0.00
2013-10-27,58.1,47.6,35.3,36.1,32.9,28.5,87,58,34,30.05,29.76,12,2,18,0.00
2013-10-28,61.0,43.1,27.9,37.2,32.5,27.2,99,70,37,30.27,30.04,11,1,20,0.00
2013-10-29,52.0,41.3,31.3,34.5,30.6,26.1,92,68,38,30.38,30.27,6,0,10,0.00
2013-10-30,53.2,40.5,31.0,45.4,36.0,29.2,98,85,67,30.30,30.13,2,0,4,0.00
2013-10-31,58.7,46.4,34.0,58.7,46.2,33.5,100,99,94,30.19,29.73,5,0,12,0.06
2013-11-1,67.4,60.3,45.4,63.5,56.3,44.7,100,88,60,29.73,29.43,20,2,38,0.08
2013-11-2,67.9,50.9,40.5,50.1,44.9,40.3,100,82,43,29.71,29.55,8,0,13,0.00
2013-11-3,46.1,39.1,29.1,43.6,30.8,18.0,99,73,57,30.41,29.71,12,2,20,0.00
2013-11-4,46.0,32.6,23.2,25.3,19.9,13.9,87,63,28,30.62,30.41,8,1,12,0.00
2013-11-5,54.1,40.4,26.4,38.4,32.4,24.0,92,75,53,30.63,30.43,6,0,13,0.00
2013-11-6,58.7,47.9,35.2,49.0,42.8,34.4,100,84,62,30.44,29.99,6,1,13,0.00
2013-11-7,59.5,50.3,36.2,57.3,48.3,33.1,99,93,86,29.99,29.66,11,1,17,0.10
2013-11-8,46.7,39.2,33.8,33.1,29.9,26.7,95,70,49,30.10,29.83,12,3,20,0.00
2013-11-9,47.7,38.9,29.8,33.3,29.2,24.8,91,69,43,30.21,29.93,6,0,12,0.00
2013-11-10,56.2,45.1,39.3,42.3,35.4,29.5,94,70,48,29.94,29.73,16,2,21,0.02
2013-11-11,50.4,45.1,38.8,33.5,30.3,27.5,69,56,42,30.11,29.87,13,2,22,0.00
2013-11-12,48.0,33.1,24.7,38.3,25.1,15.9,97,73,55,30.21,29.86,12,2,20,0.02
2013-11-13,37.9,28.1,20.0,18.9,15.8,11.2,84,62,35,30.30,30.17,11,2,16,0.00
2013-11-14,52.9,39.4,27.9,20.5,18.5,13.5,68,45,23,30.17,30.04,9,1,16,0.00
2013-11-15,59.5,39.8,25.8,27.2,22.2,17.4,81,54,24,30.17,30.07,5,1,12,0.00
2013-11-16,63.4,44.4,30.7,39.7,33.8,25.9,96,70,29,30.26,30.16,5,0,6,0.00
2013-11-17,59.9,53.0,33.8,59.0,52.2,31.7,100,97,91,30.22,29.71,9,1,13,0.01
2013-11-18,63.9,57.3,46.4,60.4,42.9,26.3,100,62,34,29.71,29.49,13,4,25,0.03
2013-11-19,46.5,39.2,30.4,31.1,25.2,19.9,70,57,47,30.30,29.68,16,4,21,0.00
2013-11-20,41.2,30.0,21.0,21.3,17.8,15.5,88,62,37,30.58,30.30,12,2,16,0.00
2013-11-21,49.9,33.5,17.0,35.2,25.6,15.1,93,75,43,30.60,30.32,3,0,7,0.00
2013-11-22,51.4,45.4,39.8,48.6,43.9,35.1,100,94,81,30.32,29.81,7,0,16,0.02
2013-11-23,51.0,39.2,26.3,47.9,25.1,8.0,89,58,34,29.97,29.82,17,4,25,0.00
2013-11-24,27.2,23.2,20.5,13.5,3.7,-5.8,60,44,24,30.26,29.89,20,7,31,0.00
2013-11-25,34.4,24.6,11.9,15.1,11.4,6.6,86,59,37,30.40,30.24,7,1,13,0.00
2013-11-26,38.3,33.1,29.7,38.3,23.6,13.0,100,70,48,30.27,29.81,8,1,13,0.34
2013-11-27,58.4,42.6,32.7,58.3,41.8,26.9,100,97,82,29.81,29.27,14,3,20,1.86
2013-11-28,32.7,27.4,20.6,26.9,15.5,8.7,87,62,41,30.41,29.60,15,4,21,0.00
2013-11-29,34.4,26.1,20.6,21.3,19.1,11.9,93,76,54,30.68,30.40,10,1,13,0.00
2013-11-30,32.8,24.5,14.3,21.7,13.4,7.9,90,64,37,30.73,30.33,6,1,10,0.00
2013-12-1,44.9,34.9,28.2,34.1,28.6,20.9,93,78,64,30.33,29.96,2,0,4,0.00
2013-12-2,42.6,32.8,27.5,36.1,30.8,26.6,99,92,76,29.96,29.84,1,0,4,0.00
2013-12-3,49.5,33.6,26.0,38.3,31.3,25.5,100,92,61,29.96,29.82,4,0,5,0.00
2013-12-4,50.2,33.5,24.2,37.3,30.2,23.5,98,89,58,30.10,29.95,2,0,2,0.00
2013-12-5,53.9,46.9,38.8,53.9,46.4,35.4,100,98,86,30.10,29.87,5,0,12,0.11
2013-12-6,53.5,42.2,32.7,53.5,40.6,31.4,100,94,76,30.11,29.81,15,3,20,0.49
2013-12-7,37.5,32.9,30.7,31.7,27.5,22.8,98,81,64,30.31,30.04,8,2,13,0.05
2013-12-8,32.2,32.2,32.2,22.8,22.8,22.8,68,68,68,30.31,30.31,1,1,0,0.00
2013-12-9,34.7,33.7,32.7,34.3,33.3,32.7,100,99,94,29.91,29.89,5,0,10,0.01
2013-12-10,34.7,30.5,23.8,33.1,28.3,18.3,99,92,78,30.01,29.78,7,1,13,0.03
2013-12-11,28.7,25.0,22.1,20.3,16.7,14.1,84,70,64,30.21,30.02,12,2,20,0.00
2013-12-12,25.8,19.5,11.1,17.2,10.4,5.2,85,68,46,30.28,30.05,8,2,12,0.00
2013-12-13,32.4,23.9,18.0,18.8,11.3,5.0,77,58,48,30.31,30.00,15,4,23,0.00
2013-12-14,21.6,17.9,14.3,19.9,13.3,8.4,94,83,59,30.47,29.87,10,2,18,0.00
2013-12-15,32.2,28.4,21.6,30.5,25.6,19.9,99,90,74,29.87,29.46,11,2,25,0.00
2013-12-16,28.8,21.9,6.0,21.8,10.6,1.9,85,62,45,30.17,29.71,13,3,20,0.00
2013-12-17,19.7,12.5,-0.2,17.7,9.5,-4.4,93,87,82,30.19,29.89,4,0,7,0.00
2013-12-18,34.7,24.6,11.9,24.5,18.5,9.2,91,78,62,30.06,29.88,9,1,13,0.01
2013-12-19,45.1,33.7,23.8,28.4,23.7,18.0,87,68,44,30.08,29.93,8,1,14,0.19
2013-12-20,50.2,37.7,27.6,33.3,30.2,25.8,94,76,51,30.04,29.88,6,1,12,0.21
2013-12-21,55.9,42.8,32.8,46.7,38.8,31.3,100,86,66,29.94,29.81,5,0,10,0.01
2013-12-22,65.6,59.3,45.4,62.7,56.7,45.2,100,91,75,29.88,29.68,10,2,17,0.14
2013-12-23,57.5,48.3,35.3,55.5,47.5,30.3,100,97,82,30.09,29.85,11,2,18,0.65
2013-12-24,35.2,30.0,22.2,30.3,21.5,5.9,86,71,51,30.25,30.03,13,4,20,0.00
2013-12-25,23.3,18.9,14.4,14.6,7.4,3.1,84,61,43,30.47,30.25,11,2,17,0.00
2013-12-26,31.2,26.2,19.5,26.2,21.0,11.8,91,80,71,30.38,30.08,8,1,15,0.00
2013-12-27,36.9,29.9,24.4,23.8,21.1,17.3,85,70,51,30.27,30.17,9,1,16,0.00
2013-12-28,49.8,33.2,21.9,28.0,24.7,19.9,94,73,41,30.19,29.98,8,1,16,0.00
2013-12-29,39.2,33.9,27.2,39.2,32.2,24.7,100,94,80,29.99,29.42,11,1,17,0.91
2013-12-30,40.5,29.6,14.8,36.3,23.6,7.7,100,79,59,30.15,29.60,15,3,21,0.00
2013-12-31,26.9,19.8,12.4,23.2,12.0,7.2,89,72,56,30.18,29.98,11,1,16,0.00
2014-1-1,30.0,23.4,18.1,19.5,12.5,7.0,88,63,48,30.34,30.17,10,2,17,0.00
2014-1-2,22.7,19.1,11.1,19.6,15.8,7.7,90,87,81,30.24,29.70,12,4,16,0.00